Richmond (NSW), Australia

7:24 PM AEST on April 27, 2017 (GMT +1000)
Richmond (Military)

Weather History for YSRI - June, 2013

Change the Weather History Date:

Monday, June 17, 2013

  Actual Average Record
Temperature  
Mean Temperature 48 °F -  
Max Temperature 62 °F 63 °F - ()
Min Temperature 33 °F 39 °F - ()
Degree Days  
Heating Degree Days 18    
Moisture  
Dew Point 40 °F    
Average Humidity 85    
Maximum Humidity 100    
Minimum Humidity 45    
Precipitation  
Precipitation 0.00 in 0.06 in - ()
Sea Level Pressure  
Sea Level Pressure 29.82 in    
Wind  
Wind Speed 2 mph ()    
Max Wind Speed 13 mph    
Max Gust Speed -    
Visibility 5.1 miles    
Events      
T = Trace of Precipitation, MM = Missing Value Source: Averaged Metar Reports

Daily Weather History Graph

Daily Weather History Graph

Search for Another Location

Airport or City:

Trip Planner

Search our weather history database for the weather conditions in past years. The results will help you decide how hot, cold, wet, or windy it might be!

Date:

Astronomy

Jun. 17, 2013 Rise Set
Actual Time 6:59 AM AEST 4:55 PM AEST
Civil Twilight 6:32 AM AEST 5:23 PM AEST
Nautical Twilight 6:01 AM AEST 5:54 PM AEST
Astronomical Twilight 5:30 AM AEST 6:24 PM AEST
Moon 12:01 PM AEST (6/17) No Moon Set
Length of Visible Light 10h 50m
Length of Day
9h 55m
First Quarter, 54% of the Moon is Illuminated
Jun 17
First Quarter
Jun 23
Full
Jun 30
Last Quarter
Jul 8
New
Jul 16
First Quarter

Hourly Weather History & Observations

Time (AEST) Temp. Windchill Dew Point Humidity Pressure Visibility Wind Dir Wind Speed Gust Speed Precip Events Conditions
12:00 AM 41.0 °F - 41.0 °F 100% 29.83 in 0.2 mi Calm Calm - N/A   Scattered Clouds
12:30 AM 39.2 °F - 39.2 °F 100% 29.83 in 0.2 mi Calm Calm - N/A   Unknown
12:42 AM 39.2 °F - 39.2 °F 100% 29.83 in 0.7 mi Calm Calm - N/A   Unknown
12:56 AM 37.4 °F - 37.4 °F 100% 29.83 in 6.2 mi East 2.3 mph - N/A   Unknown
1:00 AM 37.4 °F 33.8 °F 37.4 °F 100% 29.83 in - SE 4.6 mph - N/A   Scattered Clouds
1:14 AM 35.6 °F - 35.6 °F 100% 29.83 in 0.5 mi SE 1.2 mph - N/A   Scattered Clouds
1:25 AM 37.4 °F - 37.4 °F 100% 29.83 in 0.6 mi Calm Calm - N/A   Scattered Clouds
1:30 AM 37.4 °F - 37.4 °F 100% 29.83 in 1.2 mi Calm Calm - N/A   Scattered Clouds
1:48 AM 37.4 °F - 37.4 °F 100% 29.83 in 6.2 mi Calm Calm - N/A   Unknown
2:00 AM 37.4 °F - 37.4 °F 100% 29.83 in 6.2 mi SSE 1.2 mph - N/A   Unknown
2:30 AM 37.4 °F - 37.4 °F 100% 29.83 in 6.2 mi Calm Calm - N/A   Unknown
3:00 AM 37.4 °F - 37.4 °F 100% 29.80 in 6.2 mi Calm Calm - N/A   Unknown
3:12 AM 37.4 °F - 37.4 °F 100% 29.80 in 3.7 mi Calm Calm - N/A   Unknown
3:19 AM 37.4 °F - 35.6 °F 93% 29.80 in 0.5 mi Calm Calm - N/A   Unknown
3:30 AM 37.4 °F - 35.6 °F 93% 29.80 in 0.2 mi NNE 2.3 mph - N/A   Scattered Clouds
3:37 AM 35.6 °F - 35.6 °F 100% 29.80 in 0.7 mi North 2.3 mph - N/A   Scattered Clouds
3:43 AM 35.6 °F - 35.6 °F 100% 29.80 in 1.1 mi Calm Calm - N/A   Scattered Clouds
4:00 AM 33.8 °F - 33.8 °F 100% 29.80 in 5.6 mi Calm Calm - N/A   Unknown
4:09 AM 33.8 °F - 33.8 °F 100% 29.80 in 6.2 mi Calm Calm - N/A   Unknown
4:18 AM 33.8 °F - 33.8 °F 100% 29.80 in 6.2 mi Calm Calm - N/A   Unknown
4:30 AM 33.8 °F - 33.8 °F 100% 29.80 in 6.2 mi Calm Calm - N/A   Unknown
5:00 AM 35.6 °F 30.7 °F 35.6 °F 100% 29.80 in 6.2 mi NNW 5.8 mph - N/A   Unknown
5:30 AM 33.8 °F 30.8 °F 33.8 °F 100% 29.80 in 5.0 mi South 3.5 mph - N/A   Unknown
6:00 AM 33.8 °F - 33.8 °F 100% 29.80 in 4.3 mi SE 1.2 mph - N/A   Unknown
6:30 AM 35.6 °F - 33.8 °F 93% 29.80 in 6.2 mi Calm Calm - N/A   Scattered Clouds
7:00 AM 37.4 °F - 35.6 °F 93% 29.80 in 6.2 mi Calm Calm - N/A   Scattered Clouds
7:30 AM 37.4 °F - 37.4 °F 100% 29.80 in 6.2 mi Calm Calm - N/A   Unknown
8:00 AM 39.2 °F - 39.2 °F 100% 29.83 in 6.2 mi Calm Calm - N/A   Scattered Clouds
8:30 AM 42.8 °F - 42.8 °F 100% 29.83 in 6.2 mi Calm Calm - N/A   Overcast
9:00 AM 44.6 °F - 44.6 °F 100% 29.83 in 6.2 mi Calm Calm - N/A   Overcast
9:30 AM 48.2 °F - 46.4 °F 93% 29.83 in 6.2 mi ENE 1.2 mph - N/A   Overcast
10:00 AM 50.0 °F - 48.2 °F 94% 29.83 in 6.2 mi NE 3.5 mph - N/A   Overcast
10:30 AM 53.6 °F - 48.2 °F 82% 29.83 in 6.2 mi Calm Calm - N/A   Overcast
11:00 AM 55.4 °F - 46.4 °F 72% 29.83 in 6.2 mi Calm Calm - N/A   Overcast
11:30 AM 59.0 °F - 46.4 °F 63% 29.80 in 6.2 mi West 2.3 mph - N/A   Overcast
12:00 PM 60.8 °F - 44.6 °F 55% 29.80 in 6.2 mi SSW 12.7 mph - N/A   Overcast
12:30 PM 62.6 °F - 44.6 °F 52% 29.80 in 6.2 mi South 12.7 mph - N/A   Overcast
1:00 PM 62.6 °F - 42.8 °F 48% 29.77 in 6.2 mi SW 11.5 mph - N/A   Overcast
1:30 PM 62.6 °F - 42.8 °F 48% 29.77 in 6.2 mi SW 12.7 mph - N/A   Overcast
2:00 PM 60.8 °F - 42.8 °F 52% 29.77 in 6.2 mi SSW 10.4 mph - N/A   Overcast
2:30 PM 60.8 °F - 42.8 °F 52% 29.77 in 6.2 mi SW 11.5 mph - N/A   Overcast
3:00 PM 60.8 °F - 41.0 °F 48% 29.80 in 6.2 mi SW 12.7 mph - N/A   Mostly Cloudy
3:30 PM 62.6 °F - 41.0 °F 45% 29.80 in 6.2 mi SSW 10.4 mph - N/A   Mostly Cloudy
4:00 PM 59.0 °F - 41.0 °F 51% 29.80 in 6.2 mi SW 9.2 mph - N/A   Mostly Cloudy
4:30 PM 57.2 °F - 41.0 °F 55% 29.80 in 6.2 mi SW 6.9 mph - N/A   Unknown
5:00 PM 57.2 °F - 41.0 °F 55% 29.80 in 6.2 mi SW 4.6 mph - N/A   Unknown
5:30 PM 55.4 °F - 41.0 °F 58% 29.80 in 6.2 mi SSW 4.6 mph - N/A   Scattered Clouds
6:00 PM 53.6 °F - 41.0 °F 62% 29.83 in 6.2 mi SW 5.8 mph - N/A   Mostly Cloudy
6:30 PM 50.0 °F - 41.0 °F 71% 29.83 in 6.2 mi SW 4.6 mph - N/A   Scattered Clouds
7:00 PM 48.2 °F - 41.0 °F 76% 29.86 in 6.2 mi SW 3.5 mph - N/A   Scattered Clouds
7:30 PM 48.2 °F - 41.0 °F 76% 29.86 in 6.2 mi WSW 3.5 mph - N/A   Unknown
8:00 PM 46.4 °F 44.3 °F 39.2 °F 76% 29.86 in 6.2 mi West 4.6 mph - N/A   Unknown
8:30 PM 46.4 °F - 42.8 °F 87% 29.86 in 6.2 mi Calm Calm - N/A   Unknown
9:00 PM 44.6 °F - 42.8 °F 93% 29.86 in 6.2 mi Calm Calm - N/A   Unknown
9:30 PM 42.8 °F - 39.2 °F 87% 29.86 in 6.2 mi Calm Calm - N/A   Unknown
10:00 PM 42.8 °F - 41.0 °F 93% 29.86 in 6.2 mi Calm Calm - N/A   Unknown
10:30 PM 42.8 °F - 41.0 °F 93% 29.86 in 6.2 mi Calm Calm - N/A   Unknown
11:00 PM 41.0 °F - 39.2 °F 93% 29.86 in 6.2 mi Calm Calm - N/A   Unknown
11:30 PM 39.2 °F - 39.2 °F 100% 29.86 in 6.2 mi Calm Calm - N/A   Unknown